Regional Weather Roundup
Issued by NWS Charleston, SC

Home | Current Version | Previous Version | Text Only | Print | Product List | Glossary On
Versions: 1 2 3 4 5 6 7 8 9 10 11 12 13 14 15 16 17 18 19 20 21 22 23 24 25 26 27 28 29 30 31 32 33 34 35 36 37 38 39 40 41 42 43 44 45 46 47 48 49 50
000
ASUS42 KCHS 010227
RWRCHS

REGIONAL WEATHER ROUNDUP
NATIONAL WEATHER SERVICE CHARLESTON SC
1000 PM EDT TUE JUN 30 2015

NOTE: "FAIR" INDICATES FEW OR NO CLOUDS BELOW 12,000 FEET WITH NO
SIGNIFICANT WEATHER AND/OR OBSTRUCTIONS TO VISIBILITY.

NOT ALL STATIONS ARE QUALITY CONTROLLED BY THE NATIONAL
WEATHER SERVICE. USE DATA WITH CAUTION...ESPECIALLY
DEWPOINT OBSERVATIONS.

SCZ027-030-031-034>040-042>050-010300-
...SOUTHEAST SOUTH CAROLINA...

CITY           SKY/WX    TMP DP  RH WIND       PRES   REMARKS
N CHARLESTON   MOCLDY    73  70  90 S5        29.99R
WATERFRONT PAR   N/A     77  70  79 CALM      29.95R
MOUNT PLEASANT LGT RAIN  72  72 100 CALM      30.00R
JOHNS ISLAND   FAIR      73  70  88 SW7       30.01R
PINOPOLIS      NOT AVBL
MONCKS CORNER  FAIR      72  70  94 CALM      30.00R
SUMMERVILLE    FAIR      72  72 100 CALM      30.01R
BEAUFORT MCAS  MOCLDY    74  69  85 CALM      30.00R
BEAUFORT ARPT  FAIR      75  68  78 SW6       30.01R
HILTON HEAD IS PTCLDY    73  70  88 CALM      30.03R
WALTERBORO     MOCLDY    70  68  94 SW6       30.01R
ALLENDALE      FAIR      72  70  94 CALM      30.00R

...SOUTHERN MIDLANDS AND PEE DEE...

CITY           SKY/WX    TMP DP  RH WIND       PRES   REMARKS
GEORGETOWN     NOT AVBL
KINGSTREE      NOT AVBL
ORANGEBURG     MOCLDY    71  69  93 S6        29.99R
BARNWELL       FAIR      73  72  94 CALM      30.01R
AIKEN          NOT AVBL
MANNING        HVY RAIN  70  70 100 SW3       29.99R
COLUMBIA       MOCLDY    74  69  85 S3        29.97R
SUMTER         CLOUDY    72  68  88 SW6       29.96R
FLORENCE       CLOUDY    72  70  93 NW3       29.95R
MYRTLE BEACH   PTCLDY    75  64  69 VRB6      29.97F
N MYRTLE BEACH LGT RAIN  76  66  71 W3        29.96F

$$

GAZ063-065-086>088-099>101-113>116-118-119-134>141-150-010300-
...SOUTHEAST GEORGIA...

CITY           SKY/WX    TMP DP  RH WIND       PRES   REMARKS
SAVANNAH ARPT  MOCLDY    74  66  76 SW5       30.02R
HUNTER AAF     PTCLDY    74  70  86 SW3       30.00R
FORT STEWART   MOCLDY    74  70  87 S3        30.00R
STATESBORO     CLOUDY    72  32  23 S3        30.01
SYLVANIA       MOCLDY    73  72  99 CALM      30.02
CLAXTON        FAIR      72  70  94 CALM      30.02

...CSRA...CENTRAL AND FAR SOUTHEAST GEORGIA...

CITY           SKY/WX    TMP DP  RH WIND       PRES   REMARKS
THOMSON        MOCLDY    73  73  99 S5        30.03
AUGUSTA-BUSH   CLOUDY    72  70  93 SW5       29.98R
AUGUSTA-DANIEL CLOUDY    73  68  84 SW8       29.99R
SWAINSBORO     FAIR     N/A N/A N/A SW3       30.02
VIDALIA        HVY RAIN  72  70  94 SW5       30.02
EASTMAN        FAIR      72  72 100 SW3       30.05
HAZLEHURST     FAIR      73  73 100 CALM      30.02
ALMA           PTCLDY    72  70  93 S3        30.03R
WAYCROSS       MOCLDY    76  74  93 CALM      30.03
JESUP          FAIR      73  72  94 CALM      30.03
BAXLEY         FAIR      73  72  94 S3        30.02
BRUNSWICK      CLEAR     72  70  94 CALM      30.04
SAINT SIMONS   CLEAR     76  71  85 SW7       30.03R

$$

SCZ027-028-034-036>038-045-046-048>050-GAZ119-141-010300-
...LAKE AND SUPPLEMENTAL COASTAL OBSERVATIONS...

STATION/POSITION TIME  TEMP    WIND        PRES    WAVE   SWELL
                       AIR SEA DIR/SP/G            HT/PER HT/PER/DIR
                 (UTC) (F)     (DEG/KT/KT) (MB)    (FT/S) (FT/S/D)
UPR LAKE MARION  NOT AVBL
WINYAH BAY       0145   74     180/  1     1014.0S
LAKE MURRAY      0100   75     250/  7/  9 1013.5R
ACE BASIN NERRS  0100   72        CALM     1015.0
FORT PULASKI     0200   77 84  200/  5/  6 1017.0R
SAPELO ISLAND    0200   77     220/  8     1017.0R

$$

ANZ835-935-AMZ111-154-330-350-352-354-370-450-454-472-010300-
...C-MAN AND BUOY OBSERVATIONS...

STATION/POSITION TIME  TEMP    WIND        PRES    WAVE   SWELL
                       AIR SEA DIR/SP/G            HT/PER HT/PER/DIR
                 (UTC) (F)     (DEG/KT/KT) (MB)    (FT/S) (FT/S/D)
BUOY 41004       0150   82 83  220/ 17/ 21 1014.8R   4/ 5   2/ 8
BUOY 41008       0150   79 79  250/ 14/ 17 1017.3R   2/ 4   2/130/ 9
FOLLY BEACH CMAN 0200   76     230/  6/  8 1015.9R
CAPERS NEARSHORE 0108   78      20/  6/ 12 1015.0R
FRIPP NEARSHORE  0100   80     260/ 10/ 14 1015.2R


STATION/POSITION TIME  TEMP    WIND        PRES    WAVE   SWELL
                       AIR SEA DIR/SP/G            HT/PER HT/PER/DIR
                 (UTC) (F)     (DEG/KT/KT) (MB)    (FT/S) (FT/S/D)
5E ST. MARYS GA  0121      78                N/A     1/ 9
FRYING PAN BUOY  0150   83 80  210/ 17/ 21 1015.4R   5/ 5   2/140/ 8
BUOY 41025       0150   83 81  220/ 23/ 27 1014.3R   5/ 5   2/110/ 8
CAPE LOOKOUT NC  0200   81     220/ 15/ 20 1014.8R
BUOY 41002       0150   81 80  230/ 16/ 19 1018.5R   5/ 7   3/180/ 7
BUOY 41010       0120   80 84  260/ 23/ 33 1020.7R
ST AUGUSTINE FL  0200   77 74  170/  8/  9 1019.1F


$$



USA.gov is the U.S. government's official web portal to all federal, state and local government web resources and services.